Meteo Giornale » Osservazioni meteo Italia » Ronchi Dei Legionari

ore: 07:50 - Osservazioni Meteo Ronchi Dei Legionari
Lat. 45° 49' N Lon. 13° 29' E Alt. 12 metri s.l.m.

nuvoloso Europe/Rome

13 °C

Nuvoloso

Temp. 24 Ore

7 °C

22 °C

Est

7.4 Km/h

Dew point 5 °C

Umidità 58 %

Visibilità  10 Km

Il sole sorge alle ore 05:54

Il sole tramonta alle ore 18:28

Data e Ora Cielo e Fenomeni T °C DP °C Um. % Pres. hPa Vis. km Vento km/h
Oggi h: 07:50 nuvoloso Nuvoloso 13 5 58 1016 10 E 7.4
Oggi h: 07:20 sereno Sereno 12 5 62 1016 10 E 11.1
Oggi h: 06:50 sereno Sereno 10 4 66 1016 10 E 11.1
Oggi h: 06:20 sereno Sereno 9 4 70 1016 10 E/SE 7.4
Oggi h: 05:50 nuvoloso Nuvoloso 8 5 81 1016 10 N/NE 9.3
Oggi h: 05:20 nuvoloso Nuvoloso 8 4 75 1016 10 N 3.7
Oggi h: 04:50 poco_nuvoloso Poco Nuvoloso 7 4 81 1016 10 N 3.7
Oggi h: 04:20 sereno Sereno 7 4 81 1016 10 N/NE 13
Oggi h: 03:50 poco_nuvoloso Poco Nuvoloso 7 5 87 1016 10 N 3.7
Oggi h: 03:20 sereno Sereno 8 5 81 1016 10 N 3.7
Oggi h: 03:50 sereno Sereno 7 5 87 1016 10 N 1.8
Oggi h: 03:20 sereno Sereno 7 5 87 1016 10 N 5.5
Oggi h: 01:50 sereno Sereno 8 6 87 1017 10 N 5.5
Oggi h: 01:20 sereno Sereno 9 6 81 1017 10 N 5.5
Oggi h: 00:50 sereno Sereno 9 6 81 1017 10 E 7.4
Oggi h: 00:20 sereno Sereno 10 6 76 1017 10 N 5.5
Ieri h: 23:50 sereno Sereno 8 7 93 1017 10 N 5.5
Ieri h: 23:20 sereno Sereno 9 8 93 1017 10 N 1.8
Ieri h: 22:50 sereno Sereno 9 8 93 1017 10 N 0
Ieri h: 22:20 sereno Sereno 10 9 93 1017 10 N 1.8
Ieri h: 21:50 sereno Sereno 10 9 93 1017 10 N 3.7
Ieri h: 21:20 sereno Sereno 11 9 87 1017 10 N 3.7
Ieri h: 20:50 sereno Sereno 11 9 87 1017 10 N 3.7
Ieri h: 20:20 sereno Sereno 13 9 76 1017 10 N 1.8
Ieri h: 19:50 sereno Sereno 13 10 81 1018 10 N 1.8
Ieri h: 19:20 sereno Sereno 14 10 76 1018 10 N 5.5
Ieri h: 18:50 sereno Sereno 15 11 76 1017 10 S/SE 7.4
Ieri h: 18:20 sereno Sereno 16 11 72 1017 10 SE 11.1
Ieri h: 17:50 sereno Sereno 18 10 59 1017 10 S 7.4
Ieri h: 17:20 sereno Sereno 20 9 49 1017 10 S/SO 9.3
Ieri h: 16:50 sereno Sereno 20 9 49 1018 10 SO 13
Ieri h: 16:20 sereno Sereno 21 8 43 1018 10 O/SO 13
Ieri h: 15:50 sereno Sereno 22 8 40 1018 10 S/SO 9.3
Ieri h: 15:20 sereno Sereno 22 7 37 1018 10 S 9.3
Ieri h: 14:50 sereno Sereno 22 7 37 1019 10 SE 11.1
Ieri h: 14:20 sereno Sereno 22 6 35 1019 10 S 11.1
Ieri h: 13:20 sereno Sereno 22 6 35 1020 10 S 14.8
Ieri h: 12:50 sereno Sereno 22 6 35 1021 10 S/SE 14.8
Ieri h: 12:20 sereno Sereno 22 6 35 1021 10 SE 18.5
Ieri h: 11:50 sereno Sereno 21 6 37 1021 10 E/SE 18.5
Ieri h: 11:20 sereno Sereno 20 5 37 1021 10 SE 22.2
Ieri h: 10:50 sereno Sereno 20 5 37 1022 10 E/SE 22.2
Ieri h: 10:20 sereno Sereno 19 6 42 1022 10 E/SE 18.5
Ieri h: 09:50 sereno Sereno 19 5 39 1022 10 E/SE 22.2
Ieri h: 09:20 sereno Sereno 18 6 45 1022 10 N 3.7
Ieri h: 08:50 sereno Sereno 16 7 55 1022 10 N 3.7